Location: Góry Miechowskie
(50.3599°N, 20.1803°E)
Time: 22:39:23
(UTC+00:00)

Explorer 7 - All Passes

Search period start: 11 September 2024 00:00
Search period end: 21 September 2024 00:00
Orbit: 462 x 610 km, 50.3° (Epoch: 10 September)

Date Brightness Start Highest point End Pass type
(mag) Time Alt. Az. Time Alt. Az. Time Alt. Az.
11 Sep - 02:37:19 10° SSW 02:40:29 28° SSE 02:43:39 10° E visible
11 Sep - 04:16:01 10° WSW 04:19:39 77° SSE 04:23:17 10° E daylight
11 Sep - 05:55:29 10° W 05:59:07 85° S 06:02:47 10° E daylight
11 Sep - 07:35:00 10° W 07:38:23 36° SSW 07:41:49 10° SE daylight
12 Sep - 02:27:06 10° SW 02:30:26 33° SSE 02:33:44 10° E visible
12 Sep - 04:06:00 10° WSW 04:09:39 82° S 04:13:17 10° E daylight
12 Sep - 05:45:29 10° W 05:49:06 80° S 05:52:46 10° ESE daylight
12 Sep - 07:25:03 10° W 07:28:19 31° SSW 07:31:37 10° SE daylight
13 Sep - 02:16:52 10° SW 02:20:20 38° SSE 02:23:44 10° E visible
13 Sep - 03:55:57 10° W 03:59:36 86° S 04:03:14 10° E daylight
13 Sep - 05:35:26 10° W 05:39:03 75° SSW 05:42:42 10° ESE daylight
13 Sep - 07:15:05 10° W 07:18:11 27° SSW 07:21:19 10° SSE daylight
14 Sep - 00:29:49 10° SSE 00:31:24 12° SE 00:32:57 10° ESE visible
14 Sep - 02:06:39 10° SW 02:10:11 44° SSE 02:13:41 10° E visible
14 Sep - 03:45:51 10° W 03:49:31 89° S 03:53:09 10° E daylight
14 Sep - 05:25:20 10° W 05:28:57 68° SSW 05:32:34 10° ESE daylight
14 Sep - 07:05:06 10° W 07:08:01 22° SW 07:10:55 10° SSE daylight
15 Sep - 00:18:56 10° S 00:21:08 15° SE 00:23:19 10° ESE visible
15 Sep - 01:56:24 10° SW 02:00:01 51° SSE 02:03:34 10° E visible
15 Sep - 03:35:43 10° W 03:39:24 89° NNE 03:43:01 10° E visible
15 Sep - 05:15:12 10° W 05:18:48 61° SSW 05:22:23 10° ESE daylight
15 Sep - 06:55:09 10° W 06:57:46 19° SW 07:00:25 10° S daylight
16 Sep - 00:08:14 10° S 00:10:51 18° SE 00:13:26 10° E visible
16 Sep - 01:46:09 10° WSW 01:49:50 58° SSE 01:53:25 10° E visible
16 Sep - 03:25:32 10° W 03:29:13 89° N 03:32:51 10° E visible
16 Sep - 05:05:02 10° W 05:08:35 54° SSW 05:12:08 10° ESE daylight
16 Sep - 06:45:12 10° WSW 06:47:28 16° SW 06:49:46 10° S daylight
16 Sep - 23:57:35 10° SSW 00:00:33 21° SE 00:03:26 10° E visible
17 Sep - 01:35:52 10° WSW 01:39:35 65° SSE 01:43:12 10° E visible
17 Sep - 03:15:19 10° W 03:19:00 90° NNE 03:22:38 10° E visible
17 Sep - 04:54:49 10° W 04:58:20 47° SSW 05:01:50 10° SE daylight
17 Sep - 06:35:23 10° WSW 06:37:08 13° SW 06:38:53 10° SSW daylight
17 Sep - 23:47:00 10° SSW 23:50:11 25° SSE 23:53:18 10° E visible
18 Sep - 01:25:34 10° WSW 01:29:18 72° SSE 01:32:57 10° E visible
18 Sep - 03:05:03 10° W 03:08:44 88° S 03:12:22 10° E visible
18 Sep - 04:44:34 10° W 04:48:01 41° SSW 04:51:27 10° SE daylight
18 Sep - 06:25:54 10° WSW 06:26:44 11° SW 06:27:33 10° SSW daylight
18 Sep - 23:36:26 10° SSW 23:39:48 30° SSE 23:43:05 10° E night (unlit)
19 Sep - 01:15:13 10° WSW 01:18:59 78° SSE 01:22:39 10° E visible
19 Sep - 02:54:43 10° W 02:58:26 84° S 03:02:04 10° E visible
19 Sep - 04:34:17 10° W 04:37:39 35° SSW 04:40:59 10° SE daylight
19 Sep - 23:25:52 10° SW 23:29:24 35° SSE 23:32:49 10° E night (unlit)
20 Sep - 01:04:50 10° WSW 01:08:38 83° S 01:12:17 10° E visible
20 Sep - 02:44:22 10° W 02:48:04 80° S 02:51:42 10° ESE visible
20 Sep - 04:23:59 10° W 04:27:14 30° SSW 04:30:27 10° SSE daylight
20 Sep - 21:39:08 10° SSE 21:40:12 11° SE 21:41:15 10° ESE night (unlit)
20 Sep - 23:15:18 10° SW 23:18:57 40° SSE 23:22:28 10° E night (unlit)
